Time,TemperatureF,DewpointF,PressureIn,WindDirection,WindDirectionDegrees,WindSpeedMPH,WindSpeedGustMPH,Humidity,HourlyPrecipIn,Conditions,Clouds,dailyrainin,SoftwareType,DateUTC
2013-02-22 00:01:00,72.0,-99.9,30.15,ENE,63,5.0,12.0,-999,-99.99,,,-99.99,,2013-02-22 10:01:00,
2013-02-22 00:11:00,72.0,-99.9,30.15,ESE,105,5.0,13.0,-999,-99.99,,,-99.99,,2013-02-22 10:11:00,
2013-02-22 00:22:00,73.0,-99.9,30.15,East,94,8.0,15.0,-999,-99.99,,,-99.99,,2013-02-22 10:22:00,
2013-02-22 00:32:00,72.0,-99.9,30.15,ENE,65,5.0,19.0,-999,-99.99,,,-99.99,,2013-02-22 10:32:00,
2013-02-22 00:42:00,73.0,-99.9,30.14,NE,49,5.0,11.0,-999,-99.99,,,-99.99,,2013-02-22 10:42:00,
2013-02-22 00:52:00,73.0,-99.9,30.14,NE,47,3.0,14.0,-999,-99.99,,,-99.99,,2013-02-22 10:52:00,
2013-02-22 01:01:00,72.0,-99.9,30.14,ENE,68,5.0,13.0,-999,-99.99,,,-99.99,,2013-02-22 11:01:00,
2013-02-22 01:11:00,72.0,-99.9,30.14,East,81,5.0,9.0,-999,-99.99,,,-99.99,,2013-02-22 11:11:00,
2013-02-22 01:22:00,72.0,-99.9,30.15,NE,56,12.0,20.0,-999,-99.99,,,-99.99,,2013-02-22 11:22:00,
2013-02-22 01:32:00,72.0,-99.9,30.15,ENE,62,7.0,13.0,-999,-99.99,,,-99.99,,2013-02-22 11:32:00,
2013-02-22 01:42:00,72.0,-99.9,30.14,ENE,61,6.0,17.0,-999,-99.99,,,-99.99,,2013-02-22 11:42:00,
2013-02-22 01:52:00,72.0,-99.9,30.14,ENE,59,4.0,13.0,-999,-99.99,,,-99.99,,2013-02-22 11:52:00,
2013-02-22 02:02:00,72.0,-99.9,30.14,East,80,4.0,8.0,-999,-99.99,,,-99.99,,2013-02-22 12:02:00,
2013-02-22 02:11:00,72.0,-99.9,30.14,ENE,74,2.0,9.0,-999,-99.99,,,-99.99,,2013-02-22 12:11:00,
2013-02-22 02:22:00,71.0,-99.9,30.14,NE,54,5.0,11.0,-999,-99.99,,,-99.99,,2013-02-22 12:22:00,
2013-02-22 02:32:00,70.0,-99.9,30.13,ENE,74,3.0,5.0,-999,-99.99,,,-99.99,,2013-02-22 12:32:00,
2013-02-22 02:42:00,70.0,-99.9,30.13,East,99,4.0,11.0,-999,-99.99,,,-99.99,,2013-02-22 12:42:00,
2013-02-22 02:52:00,71.0,-99.9,30.11,NE,50,5.0,10.0,-999,-99.99,,,-99.99,,2013-02-22 12:52:00,
2013-02-22 03:02:00,72.0,-99.9,30.11,NE,52,4.0,9.0,-999,-99.99,,,-99.99,,2013-02-22 13:02:00,
2013-02-22 03:11:00,71.0,-99.9,30.12,East,101,8.0,13.0,-999,-99.99,,,-99.99,,2013-02-22 13:11:00,
2013-02-22 03:22:00,71.0,-99.9,30.11,ENE,72,2.0,11.0,-999,-99.99,,,-99.99,,2013-02-22 13:22:00,
2013-02-22 03:32:00,71.0,-99.9,30.10,ENE,64,7.0,16.0,-999,-99.99,,,-99.99,,2013-02-22 13:32:00,
2013-02-22 03:42:00,71.0,-99.9,30.10,ENE,70,7.0,12.0,-999,-99.99,,,-99.99,,2013-02-22 13:42:00,
2013-02-22 03:52:00,71.0,-99.9,30.10,ENE,77,2.0,11.0,-999,-99.99,,,-99.99,,2013-02-22 13:52:00,
2013-02-22 04:01:00,71.0,-99.9,30.10,NE,54,6.0,8.0,-999,-99.99,,,-99.99,,2013-02-22 14:01:00,
2013-02-22 04:11:00,70.0,-99.9,30.10,ENE,70,4.0,7.0,-999,-99.99,,,-99.99,,2013-02-22 14:11:00,
2013-02-22 04:22:00,70.0,-99.9,30.10,NE,38,3.0,5.0,-999,-99.99,,,-99.99,,2013-02-22 14:22:00,
2013-02-22 04:32:00,71.0,-99.9,30.09,ENE,64,5.0,10.0,-999,-99.99,,,-99.99,,2013-02-22 14:32:00,
2013-02-22 04:42:00,71.0,-99.9,30.09,ENE,58,5.0,10.0,-999,-99.99,,,-99.99,,2013-02-22 14:42:00,
2013-02-22 04:53:00,71.0,-99.9,30.09,NE,37,4.0,10.0,-999,-99.99,,,-99.99,,2013-02-22 14:53:00,
2013-02-22 05:02:00,71.0,-99.9,30.08,NE,36,4.0,12.0,-999,-99.99,,,-99.99,,2013-02-22 15:02:00,
2013-02-22 05:12:00,71.0,-99.9,30.09,East,81,5.0,9.0,-999,-99.99,,,-99.99,,2013-02-22 15:12:00,
2013-02-22 05:22:00,70.0,-99.9,30.09,NE,56,6.0,13.0,-999,-99.99,,,-99.99,,2013-02-22 15:22:00,
2013-02-22 05:32:00,71.0,-99.9,30.09,NE,52,6.0,14.0,-999,-99.99,,,-99.99,,2013-02-22 15:32:00,
2013-02-22 05:42:00,72.0,-99.9,30.09,ENE,69,8.0,19.0,-999,-99.99,,,-99.99,,2013-02-22 15:42:00,
2013-02-22 05:52:00,72.0,-99.9,30.09,East,89,4.0,13.0,-999,-99.99,,,-99.99,,2013-02-22 15:52:00,
2013-02-22 06:02:00,71.0,-99.9,30.09,ENE,60,3.0,5.0,-999,-99.99,,,-99.99,,2013-02-22 16:02:00,
2013-02-22 06:12:00,71.0,-99.9,30.09,ENE,75,5.0,10.0,-999,-99.99,,,-99.99,,2013-02-22 16:12:00,
2013-02-22 06:22:00,71.0,-99.9,30.09,ENE,78,1.0,6.0,-999,-99.99,,,-99.99,,2013-02-22 16:22:00,
2013-02-22 06:32:00,71.0,-99.9,30.09,East,101,4.0,7.0,-999,-99.99,,,-99.99,,2013-02-22 16:32:00,
2013-02-22 06:42:00,72.0,-99.9,30.09,ESE,106,7.0,13.0,-999,-99.99,,,-99.99,,2013-02-22 16:42:00,
2013-02-22 06:52:00,71.0,-99.9,30.09,East,82,2.0,11.0,-999,-99.99,,,-99.99,,2013-02-22 16:52:00,
2013-02-22 07:01:00,72.0,-99.9,30.10,NE,34,2.0,7.0,-999,-99.99,,,-99.99,,2013-02-22 17:01:00,
2013-02-22 07:12:00,72.0,-99.9,30.11,ENE,65,3.0,11.0,-999,-99.99,,,-99.99,,2013-02-22 17:12:00,
2013-02-22 07:22:00,72.0,-99.9,30.11,NE,48,2.0,7.0,-999,-99.99,,,-99.99,,2013-02-22 17:22:00,
2013-02-22 07:32:00,72.0,-99.9,30.11,North,5,5.0,9.0,-999,-99.99,,,-99.99,,2013-02-22 17:32:00,
2013-02-22 07:42:00,72.0,-99.9,30.12,ENE,68,1.0,4.0,-999,-99.99,,,-99.99,,2013-02-22 17:42:00,
2013-02-22 07:52:00,72.0,-99.9,30.12,ENE,69,5.0,9.0,-999,-99.99,,,-99.99,,2013-02-22 17:52:00,
2013-02-22 08:02:00,72.0,-99.9,30.12,NE,43,5.0,12.0,-999,-99.99,,,-99.99,,2013-02-22 18:02:00,
2013-02-22 08:12:00,73.0,-99.9,30.12,ENE,61,9.0,15.0,-999,-99.99,,,-99.99,,2013-02-22 18:12:00,
2013-02-22 08:23:00,73.0,-99.9,30.12,ENE,67,6.0,11.0,-999,-99.99,,,-99.99,,2013-02-22 18:23:00,
2013-02-22 08:32:00,73.0,-99.9,30.12,East,97,9.0,14.0,-999,-99.99,,,-99.99,,2013-02-22 18:32:00,
2013-02-22 08:42:00,73.0,-99.9,30.12,East,97,9.0,14.0,-999,-99.99,,,-99.99,,2013-02-22 18:42:00,
2013-02-22 08:52:00,73.0,-99.9,30.12,East,97,9.0,14.0,-999,-99.99,,,-99.99,,2013-02-22 18:52:00,
2013-02-22 09:01:00,73.0,-99.9,30.12,East,97,9.0,14.0,-999,-99.99,,,-99.99,,2013-02-22 19:01:00,
2013-02-22 09:42:00,72.0,-99.9,30.15,East,86,5.0,20.0,-999,-99.99,,,-99.99,,2013-02-22 19:42:00,
2013-02-22 09:52:00,73.0,-99.9,30.15,ENE,63,7.0,16.0,-999,-99.99,,,-99.99,,2013-02-22 19:52:00,
2013-02-22 10:01:00,73.0,-99.9,30.15,NE,35,8.0,19.0,-999,-99.99,,,-99.99,,2013-02-22 20:01:00,
2013-02-22 10:11:00,71.0,-99.9,30.15,NNE,18,4.0,12.0,-999,-99.99,,,-99.99,,2013-02-22 20:11:00,
2013-02-22 10:22:00,71.0,-99.9,30.15,NE,42,8.0,12.0,-999,-99.99,,,-99.99,,2013-02-22 20:22:00,
2013-02-22 10:32:00,72.0,-99.9,30.15,ENE,60,4.0,14.0,-999,-99.99,,,-99.99,,2013-02-22 20:32:00,
2013-02-22 10:42:00,71.0,-99.9,30.15,ESE,102,5.0,13.0,-999,-99.99,,,-99.99,,2013-02-22 20:42:00,
2013-02-22 10:52:00,72.0,-99.9,30.15,ENE,60,7.0,15.0,-999,-99.99,,,-99.99,,2013-02-22 20:52:00,
2013-02-22 11:02:00,73.0,-99.9,30.14,ENE,61,8.0,13.0,-999,-99.99,,,-99.99,,2013-02-22 21:02:00,
2013-02-22 11:11:00,73.0,-99.9,30.15,East,87,6.0,18.0,-999,-99.99,,,-99.99,,2013-02-22 21:11:00,
2013-02-22 11:22:00,72.0,-99.9,30.15,SE,127,5.0,11.0,-999,-99.99,,,-99.99,,2013-02-22 21:22:00,
2013-02-22 11:32:00,71.0,-99.9,30.15,ENE,66,6.0,15.0,-999,-99.99,,,-99.99,,2013-02-22 21:32:00,
2013-02-22 11:42:00,71.0,-99.9,30.15,ENE,59,6.0,15.0,-999,-99.99,,,-99.99,,2013-02-22 21:42:00,
2013-02-22 11:52:00,72.0,-99.9,30.14,ESE,108,4.0,15.0,-999,-99.99,,,-99.99,,2013-02-22 21:52:00,
2013-02-22 12:01:00,72.0,-99.9,30.14,ENE,57,6.0,13.0,-999,-99.99,,,-99.99,,2013-02-22 22:01:00,
2013-02-22 12:11:00,73.0,-99.9,30.13,ENE,62,7.0,11.0,-999,-99.99,,,-99.99,,2013-02-22 22:11:00,
2013-02-22 12:22:00,73.0,-99.9,30.13,ENE,57,7.0,12.0,-999,-99.99,,,-99.99,,2013-02-22 22:22:00,
2013-02-22 12:32:00,74.0,-99.9,30.13,NE,55,9.0,13.0,-999,-99.99,,,-99.99,,2013-02-22 22:32:00,
2013-02-22 12:42:00,74.0,-99.9,30.12,ENE,64,6.0,16.0,-999,-99.99,,,-99.99,,2013-02-22 22:42:00,
2013-02-22 12:52:00,74.0,-99.9,30.11,ENE,77,5.0,15.0,-999,-99.99,,,-99.99,,2013-02-22 22:52:00,
2013-02-22 13:01:00,74.0,-99.9,30.11,NE,54,12.0,17.0,-999,-99.99,,,-99.99,,2013-02-22 23:01:00,
2013-02-22 13:11:00,74.0,-99.9,30.11,East,81,8.0,18.0,-999,-99.99,,,-99.99,,2013-02-22 23:11:00,
2013-02-22 13:21:00,74.0,-99.9,30.10,ENE,59,8.0,17.0,-999,-99.99,,,-99.99,,2013-02-22 23:21:00,
2013-02-22 13:32:00,76.0,-99.9,30.09,ENE,74,3.0,16.0,-999,-99.99,,,-99.99,,2013-02-22 23:32:00,
2013-02-22 13:42:00,75.0,-99.9,30.09,East,101,8.0,15.0,-999,-99.99,,,-99.99,,2013-02-22 23:42:00,
2013-02-22 13:52:00,76.0,-99.9,30.09,East,95,7.0,17.0,-999,-99.99,,,-99.99,,2013-02-22 23:52:00,
2013-02-22 14:02:00,76.0,-99.9,30.09,ENE,64,9.0,16.0,-999,-99.99,,,-99.99,,2013-02-23 00:02:00,
2013-02-22 14:11:00,76.0,-99.9,30.08,NE,44,6.0,16.0,-999,-99.99,,,-99.99,,2013-02-23 00:11:00,
2013-02-22 14:22:00,76.0,-99.9,30.08,ENE,63,9.0,13.0,-999,-99.99,,,-99.99,,2013-02-23 00:22:00,
2013-02-22 14:32:00,76.0,-99.9,30.08,ENE,59,7.0,16.0,-999,-99.99,,,-99.99,,2013-02-23 00:32:00,
2013-02-22 14:42:00,75.0,-99.9,30.08,ENE,67,10.0,19.0,-999,-99.99,,,-99.99,,2013-02-23 00:42:00,
2013-02-22 14:52:00,74.0,-99.9,30.07,ENE,65,9.0,20.0,-999,-99.99,,,-99.99,,2013-02-23 00:52:00,
2013-02-22 15:01:00,76.0,-99.9,30.07,ENE,63,9.0,18.0,-999,-99.99,,,-99.99,,2013-02-23 01:01:00,
2013-02-22 15:11:00,75.0,-99.9,30.07,NE,51,7.0,15.0,-999,-99.99,,,-99.99,,2013-02-23 01:11:00,
2013-02-22 15:22:00,75.0,-99.9,30.06,NE,47,6.0,15.0,-999,-99.99,,,-99.99,,2013-02-23 01:22:00,
2013-02-22 15:32:00,75.0,-99.9,30.06,ENE,78,6.0,14.0,-999,-99.99,,,-99.99,,2013-02-23 01:32:00,
2013-02-22 15:42:00,75.0,-99.9,30.06,ENE,63,7.0,16.0,-999,-99.99,,,-99.99,,2013-02-23 01:42:00,
2013-02-22 15:52:00,75.0,-99.9,30.06,ENE,63,6.0,12.0,-999,-99.99,,,-99.99,,2013-02-23 01:52:00,
2013-02-22 16:01:00,75.0,-99.9,30.06,ENE,59,8.0,11.0,-999,-99.99,,,-99.99,,2013-02-23 02:01:00,
2013-02-22 16:11:00,75.0,-99.9,30.06,ENE,60,9.0,13.0,-999,-99.99,,,-99.99,,2013-02-23 02:11:00,
2013-02-22 16:22:00,74.0,-99.9,30.06,NE,54,8.0,14.0,-999,-99.99,,,-99.99,,2013-02-23 02:22:00,
2013-02-22 16:32:00,75.0,-99.9,30.06,NE,48,4.0,11.0,-999,-99.99,,,-99.99,,2013-02-23 02:32:00,
2013-02-22 16:42:00,76.0,-99.9,30.06,NNE,31,5.0,14.0,-999,-99.99,,,-99.99,,2013-02-23 02:42:00,
2013-02-22 16:52:00,76.0,-99.9,30.06,ENE,69,4.0,10.0,-999,-99.99,,,-99.99,,2013-02-23 02:52:00,
2013-02-22 17:02:00,75.0,-99.9,30.06,ENE,66,8.0,15.0,-999,-99.99,,,-99.99,,2013-02-23 03:02:00,
2013-02-22 17:11:00,75.0,-99.9,30.06,ENE,65,7.0,17.0,-999,-99.99,,,-99.99,,2013-02-23 03:11:00,
2013-02-22 17:22:00,75.0,-99.9,30.06,ESE,108,8.0,13.0,-999,-99.99,,,-99.99,,2013-02-23 03:22:00,
2013-02-22 17:32:00,73.0,-99.9,30.07,ESE,106,4.0,13.0,-999,-99.99,,,-99.99,,2013-02-23 03:32:00,
2013-02-22 17:42:00,73.0,-99.9,30.07,ESE,114,2.0,12.0,-999,-99.99,,,-99.99,,2013-02-23 03:42:00,
2013-02-22 17:52:00,73.0,-99.9,30.07,ENE,73,6.0,11.0,-999,-99.99,,,-99.99,,2013-02-23 03:52:00,
2013-02-22 18:01:00,73.0,-99.9,30.08,SSE,159,4.0,6.0,-999,-99.99,,,-99.99,,2013-02-23 04:01:00,
2013-02-22 18:11:00,73.0,-99.9,30.08,ENE,75,6.0,11.0,-999,-99.99,,,-99.99,,2013-02-23 04:11:00,
2013-02-22 18:21:00,73.0,-99.9,30.08,ENE,60,4.0,14.0,-999,-99.99,,,-99.99,,2013-02-23 04:21:00,
2013-02-22 18:32:00,73.0,-99.9,30.08,ENE,62,6.0,15.0,-999,-99.99,,,-99.99,,2013-02-23 04:32:00,
2013-02-22 18:42:00,73.0,-99.9,30.08,East,88,2.0,10.0,-999,-99.99,,,-99.99,,2013-02-23 04:42:00,
2013-02-22 18:52:00,73.0,-99.9,30.09,ESE,122,2.0,8.0,-999,-99.99,,,-99.99,,2013-02-23 04:52:00,
2013-02-22 19:03:00,73.0,-99.9,30.09,North,3,3.0,8.0,-999,-99.99,,,-99.99,,2013-02-23 05:03:00,
2013-02-22 19:12:00,73.0,-99.9,30.10,ENE,63,7.0,19.0,-999,-99.99,,,-99.99,,2013-02-23 05:12:00,
2013-02-22 19:23:00,72.0,-99.9,30.10,ESE,123,3.0,6.0,-999,-99.99,,,-99.99,,2013-02-23 05:23:00,
2013-02-22 19:33:00,73.0,-99.9,30.10,NE,38,7.0,13.0,-999,-99.99,,,-99.99,,2013-02-23 05:33:00,
2013-02-22 19:42:00,72.0,-99.9,30.10,East,95,4.0,9.0,-999,-99.99,,,-99.99,,2013-02-23 05:42:00,
2013-02-22 19:52:00,72.0,-99.9,30.10,NE,56,5.0,11.0,-999,-99.99,,,-99.99,,2013-02-23 05:52:00,
2013-02-22 20:02:00,71.0,-99.9,30.10,ESE,119,4.0,13.0,-999,-99.99,,,-99.99,,2013-02-23 06:02:00,
2013-02-22 20:11:00,71.0,-99.9,30.10,ENE,66,9.0,17.0,-999,-99.99,,,-99.99,,2013-02-23 06:11:00,
2013-02-22 20:23:00,71.0,-99.9,30.11,NE,54,6.0,11.0,-999,-99.99,,,-99.99,,2013-02-23 06:23:00,
2013-02-22 20:32:00,72.0,-99.9,30.11,ENE,68,6.0,16.0,-999,-99.99,,,-99.99,,2013-02-23 06:32:00,
2013-02-22 20:42:00,72.0,-99.9,30.11,ENE,62,6.0,13.0,-999,-99.99,,,-99.99,,2013-02-23 06:42:00,
2013-02-22 20:52:00,71.0,-99.9,30.11,ENE,65,5.0,12.0,-999,-99.99,,,-99.99,,2013-02-23 06:52:00,
2013-02-22 21:01:00,71.0,-99.9,30.12,ENE,59,8.0,16.0,-999,-99.99,,,-99.99,,2013-02-23 07:01:00,
2013-02-22 21:11:00,72.0,-99.9,30.12,ENE,74,7.0,11.0,-999,-99.99,,,-99.99,,2013-02-23 07:11:00,
2013-02-22 21:21:00,72.0,-99.9,30.12,ENE,64,9.0,14.0,-999,-99.99,,,-99.99,,2013-02-23 07:21:00,
2013-02-22 21:32:00,72.0,-99.9,30.12,NE,48,5.0,13.0,-999,-99.99,,,-99.99,,2013-02-23 07:32:00,
2013-02-22 21:42:00,72.0,-99.9,30.12,NE,45,6.0,11.0,-999,-99.99,,,-99.99,,2013-02-23 07:42:00,
2013-02-22 21:52:00,72.0,-99.9,30.13,East,86,4.0,10.0,-999,-99.99,,,-99.99,,2013-02-23 07:52:00,
2013-02-22 22:01:00,72.0,-99.9,30.13,ENE,60,2.0,16.0,-999,-99.99,,,-99.99,,2013-02-23 08:01:00,
2013-02-22 22:11:00,72.0,-99.9,30.13,ENE,62,7.0,14.0,-999,-99.99,,,-99.99,,2013-02-23 08:11:00,
2013-02-22 22:21:00,72.0,-99.9,30.14,ESE,105,3.0,9.0,-999,-99.99,,,-99.99,,2013-02-23 08:21:00,
2013-02-22 22:32:00,72.0,-99.9,30.14,East,94,6.0,11.0,-999,-99.99,,,-99.99,,2013-02-23 08:32:00,
2013-02-22 22:42:00,72.0,-99.9,30.14,East,98,7.0,14.0,-999,-99.99,,,-99.99,,2013-02-23 08:42:00,
2013-02-22 22:53:00,72.0,-99.9,30.14,ESE,108,7.0,15.0,-999,-99.99,,,-99.99,,2013-02-23 08:53:00,
2013-02-22 23:02:00,72.0,-99.9,30.14,East,100,7.0,12.0,-999,-99.99,,,-99.99,,2013-02-23 09:02:00,
2013-02-22 23:11:00,71.0,-99.9,30.14,East,86,6.0,16.0,-999,-99.99,,,-99.99,,2013-02-23 09:11:00,
2013-02-22 23:22:00,72.0,-99.9,30.14,East,84,5.0,10.0,-999,-99.99,,,-99.99,,2013-02-23 09:22:00,
2013-02-22 23:32:00,72.0,-99.9,30.14,East,87,3.0,11.0,-999,-99.99,,,-99.99,,2013-02-23 09:32:00,
2013-02-22 23:42:00,72.0,-99.9,30.14,NE,52,5.0,13.0,-999,-99.99,,,-99.99,,2013-02-23 09:42:00,
2013-02-22 23:52:00,72.0,-99.9,30.14,East,93,3.0,8.0,-999,-99.99,,,-99.99,,2013-02-23 09:52:00,